Location: Praha
(50.0830°N, 14.4670°E)
Time: 10:09:19
(UTC+01:00)

ISS - Pass Details

Date: 25 January 2023
Orbit: 412 x 423 km, 51.6° (Epoch: 06 February)

Event Time Altitude Azimuth Distance (km) Brightness Sun altitude
Rises 19:12:50 0° 280° (W) 2,383 1.4 -23.7°
Reaches altitude 10° 19:14:57 10° 283° (WNW) 1,518 0.1 -24.0°
Enters shadow 19:17:10 37° 294° (WNW) 678 -2.3 -24.4°
